Simultaneous Nadir Overpasses (SNOs) Predictions

Prediction of SNOs between AURA and NPP Satellite Orbit:

Table of predicted SNOs for the next 14.0 days since TLE Epoch: 11/17/2018
Index Date (AURA) Time (AURA) Lat,Lon (AURA) SZA (AURA ) Date (NPP) Time (NPP) Lat,Lon (NPP) SZA (NPP ) Distance(km) Time Diff (sec)
1 11/19/2018 19:08:20 -79.60, -29.60 69.15 11/19/2018 19:08:07 -79.61, -29.50 69.16 2.13 13
2 11/19/2018 19:57:41 79.78, 139.36 110.61 11/19/2018 19:58:46 79.78, 139.35 110.57 0.19 65
3 11/22/2018 10:35:29 79.34, -83.15 111.80 11/22/2018 10:34:25 79.33, -83.26 111.88 2.59 64
4 11/22/2018 11:24:49 -79.62, 86.40 68.56 11/22/2018 11:25:02 -79.62, 86.35 68.56 1.00 13
5 11/25/2018 02:51:54 79.51, 33.85 112.16 11/25/2018 02:51:15 79.51, 33.89 112.18 0.74 39
6 11/25/2018 03:41:14 -79.78,-156.55 68.21 11/25/2018 03:41:52 -79.78,-156.41 68.26 2.71 38
7 11/27/2018 19:08:21 79.55, 150.05 112.63 11/27/2018 19:08:08 79.55, 149.97 112.65 1.95 13
8 11/27/2018 19:57:41 -79.82, -40.33 67.74 11/27/2018 19:58:45 -79.82, -40.30 67.79 0.52 64
9 11/30/2018 10:35:29 -79.38, 97.08 66.66 11/30/2018 10:34:24 -79.38, 97.05 66.60 0.62 65




NCC Satellite Simultaneous Nadir Overpasses (SNOs) Prediction Service
